Regional Weather Roundup
Issued by NWS Bismarck, ND

Home | Current Version | Previous Version | Text Only | Print | Product List | Glossary On
Versions: 1 2 3 4 5 6 7 8 9 10 11 12 13 14 15 16 17 18 19 20 21 22 23 24 25 26 27 28 29 30 31 32 33 34 35 36 37 38 39 40 41 42 43 44 45 46 47 48 49 50
000
ASUS43 KBIS 221510
RWRBIS

NWR BROADCAST TEXT
NATIONAL WEATHER SERVICE BISMARCK ND
1000 AM CDT THU JUN 22 2017

NOTE: "FAIR" INDICATES FEW OR NO CLOUDS BELOW 12,000 FEET WITH NO
SIGNIFICANT WEATHER AND/OR OBSTRUCTIONS TO VISIBILITY.


CITY           SKY/WX    TMP DP  RH WIND       PRES   REMARKS
WILLISTON      SUNNY     64  43  46 W16       29.87R
MINOT          SUNNY     66  43  43 W20G26    29.78R
MINOT AFB      SUNNY     65  43  46 NW21G26   29.76R
BISMARCK       CLOUDY    67  44  43 NW16G25   29.83S
DICKINSON      SUNNY     64  41  42 NW20G25   29.87S
GARRISON         N/A     64  44  48 NW16G25   29.82R
HETTINGER ARPT CLOUDY    67  39  35 NW20G28   29.92R
JAMESTOWN      CLOUDY    65  47  52 NW13      29.77F
HAZEN          FAIR      66  41  39 NW20G26   29.86R
LINTON         PTSUNNY  N/A N/A N/A VRB7G13   29.85S
MANDAN         PTSUNNY   64  45  48 NW20G25   29.84R
STANLEY        FAIR      61  45  55 NW15G26   29.84R
TIOGA          FAIR      59  46  63 NW21G30   29.84S
WATFORD CITY   FAIR      61  39  44 NW13G22   29.87R
$$

CITY           SKY/WX    TMP DP  RH WIND       PRES   REMARKS
GRAND FORKS    CLOUDY    64  52  64 SW8       29.71F
GRAND FORKS AF CLOUDY    63  51  65 SW7       29.72S
DEVILS LAKE    SUNNY     66  49  54 W17       29.74S
FARGO          PTSUNNY   71  47  42 NW12      29.74S
CAVALIER       FAIR      64  52  63 SW7       29.68S
GRAFTON        FAIR      66  52  59 W12       29.70F
GWINNER        SUNNY     66  50  55 NW8       29.77S
LANGDON        FAIR      66  54  63 W14G22    29.70S
ROLLA            N/A     63  41  45 W14G23    29.71S
$$

CITY           SKY/WX    TMP DP  RH WIND       PRES   REMARKS
ABERDEEN       CLOUDY    65  52  62 N14       29.79R
MOBRIDGE       SUNNY     70  46  42 N18G26    29.81R
BUFFALO          N/A     64  47  53 S5        29.88R
RAPID CITY     CLOUDY    65  51  60 N17G25    29.93R
GLASGOW        SUNNY     60  39  45 NW15      29.93S
SIDNEY         SUNNY     64  40  41 W17       29.90
WOLF POINT     SUNNY     63  40  42 NW17      29.91S
GLENDIVE       SUNNY     62  39  42 NW13      29.94
MILES CITY     SUNNY     65  35  33 NW12      29.97S
BAKER          SUNNY     61  41  47 NW13      29.95R
$$

CITY           SKY/WX    TMP DP  RH WIND       PRES   REMARKS
BILLINGS       MOSUNNY   61  41  47 SW6       30.04S
GREAT FALLS    SUNNY     57  38  48 CALM      30.06R
REGINA         PTSUNNY   55  39  54 W29G44    29.72S
ESTEVAN        MOSUNNY   63  37  39 W30G38    29.76F
$$





USA.gov is the U.S. government's official web portal to all federal, state and local government web resources and services.